Location: Bonny Doon Airfield
(37.0704°N, 122.1252°W)
Time: 23:58:37
(UTC-07:00)

Vanguard 2 Rocket - All Passes

Search period start: 15 July 2018 00:00
Search period end: 25 July 2018 00:00
Orbit: 553 x 3327 km, 32.9° (Epoch: 15 July)

Date Brightness Start Highest point End Pass type
(mag) Time Alt. Az. Time Alt. Az. Time Alt. Az.
15 Jul - 03:39:26 10° SSW 03:45:29 35° SE 03:55:21 10° E visible
15 Jul - 05:50:24 10° WSW 05:59:06 70° S 06:14:47 10° E daylight
15 Jul - 08:03:13 10° W 08:15:09 71° S 08:34:18 10° ESE daylight
15 Jul - 10:17:37 10° W 10:32:17 49° SSW 10:51:12 10° SE daylight
15 Jul - 12:36:08 10° W 12:48:50 22° SW 13:02:10 10° S daylight
16 Jul - 02:41:53 10° S 02:46:25 21° SE 02:52:50 10° E visible
16 Jul - 04:51:37 10° WSW 04:58:56 60° SSE 05:12:10 10° E visible
16 Jul - 07:03:49 10° W 07:14:02 73° S 07:31:43 10° ESE daylight
16 Jul - 09:17:23 10° W 09:30:43 57° SSW 09:49:57 10° SE daylight
16 Jul - 11:33:40 10° W 11:47:34 30° SW 12:03:31 10° SSE daylight
17 Jul - 01:46:49 10° SE 01:47:37 10° SE 01:48:29 10° SE visible
17 Jul - 03:53:09 10° SW 03:59:16 46° SSE 04:09:51 10° E visible
17 Jul - 06:04:42 10° W 06:13:21 73° S 06:29:01 10° E daylight
17 Jul - 08:17:37 10° W 08:29:22 63° SSW 08:48:03 10° ESE daylight
17 Jul - 10:32:25 10° W 10:46:09 38° SSW 11:03:39 10° SSE daylight
17 Jul - 12:54:40 10° WSW 13:02:27 14° SW 13:10:31 10° SSW daylight
18 Jul - 02:55:03 10° SSW 03:00:02 31° SE 03:07:47 10° E visible
18 Jul - 05:05:49 10° WSW 05:13:07 68° S 05:26:27 10° E visible
18 Jul - 07:18:12 10° W 07:28:19 68° S 07:45:43 10° ESE daylight
18 Jul - 09:31:59 10° W 09:44:45 46° SSW 10:02:53 10° SE daylight
18 Jul - 11:49:57 10° W 12:01:17 21° SW 12:14:03 10° S daylight
19 Jul - 01:57:37 10° S 02:01:07 18° SE 02:05:42 10° E visible
19 Jul - 04:07:10 10° WSW 04:13:18 57° SSE 04:24:12 10° E visible
19 Jul - 06:19:03 10° W 06:27:38 71° S 06:43:10 10° ESE daylight
19 Jul - 08:32:06 10° W 08:43:31 53° SSW 09:01:24 10° SE daylight
19 Jul - 10:47:49 10° W 11:00:02 28° SW 11:15:12 10° SSE daylight
20 Jul - 03:08:46 10° SW 03:13:54 43° SSE 03:22:21 10° E visible
20 Jul - 05:20:08 10° W 05:27:23 70° S 05:40:41 10° E visible
20 Jul - 07:32:38 10° W 07:42:34 59° SSW 07:59:25 10° ESE daylight
20 Jul - 09:46:55 10° W 09:58:48 35° SSW 10:15:08 10° SSE daylight
20 Jul - 12:09:25 10° WSW 12:15:10 12° SW 12:21:16 10° SSW daylight
21 Jul - 02:10:43 10° SSW 02:14:50 27° SSE 02:20:48 10° E visible
21 Jul - 04:21:23 10° WSW 04:27:30 65° S 04:38:30 10° E visible
21 Jul - 06:33:28 10° W 06:41:57 64° S 06:57:08 10° ESE daylight
21 Jul - 08:46:47 10° W 08:57:40 42° SSW 09:14:13 10° SE daylight
21 Jul - 11:04:27 10° WSW 11:14:00 18° SW 11:25:16 10° S daylight
22 Jul - 01:13:22 10° S 01:15:59 15° SE 01:19:09 10° ESE visible
22 Jul - 03:22:49 10° WSW 03:27:59 54° SSE 03:36:43 10° E visible
22 Jul - 05:34:30 10° W 05:41:42 67° S 05:54:50 10° ESE visible
22 Jul - 07:47:10 10° W 07:56:48 48° SSW 08:12:41 10° SE daylight
22 Jul - 10:02:31 10° W 10:12:52 25° SSW 10:26:23 10° SSE daylight
23 Jul - 02:24:25 10° SW 02:28:46 39° SSE 02:35:24 10° E visible
23 Jul - 04:35:43 10° W 04:41:48 67° S 04:52:45 10° E visible
23 Jul - 06:47:55 10° W 06:56:15 54° SSW 07:10:48 10° SE daylight
23 Jul - 09:01:52 10° W 09:11:52 31° SSW 09:26:16 10° SSE daylight
24 Jul - 01:26:20 10° SSW 01:29:49 24° SSE 01:34:23 10° E visible
24 Jul - 03:37:03 10° WSW 03:42:13 61° S 03:51:03 10° E visible
24 Jul - 05:48:56 10° W 05:56:01 59° S 06:08:47 10° ESE daylight
24 Jul - 08:01:57 10° W 08:11:04 37° SSW 08:25:22 10° SE daylight
24 Jul - 10:19:45 10° WSW 10:27:03 15° SW 10:35:45 10° S daylight
